When you browse on this site, cookies collect data to enhance your experience and personalize the content and advertising you see.
Visit our Privacy Policy to learn more. By continuing to use the site, you agree to this use of cookies and data.

Hourly Weather Herceg Novi

Today, 15 July, Wednesday

Time Temperature Precipitation Wind Pressure Humidity
00:00 +19°C° 0 mm 3 mps 759 mmHg 67%
01:00 +19°C° 0 mm 3 mps 759 mmHg 66%
02:00 +19°C° 0 mm 3 mps 759 mmHg 66%
03:00 +18°C° 0 mm 2 mps 759 mmHg 66%
04:00 +18°C° 0 mm 2 mps 759 mmHg 66%
05:00 +20°C° 0 mm 2 mps 759 mmHg 60%
06:00 +23°C° 0 mm 1 mps 759 mmHg 55%
07:00 +25°C° 0 mm 1 mps 759 mmHg 49%
08:00 +26°C° 0 mm 2 mps 760 mmHg 48%
09:00 +28°C° 0 mm 2 mps 760 mmHg 46%
10:00 +29°C° 0 mm 2 mps 760 mmHg 45%
11:00 +29°C° 0 mm 2 mps 760 mmHg 45%
12:00 +29°C° 0 mm 1 mps 760 mmHg 45%
13:00 +29°C° 0 mm 1 mps 760 mmHg 45%
14:00 +29°C° 0 mm 1 mps 759 mmHg 46%
15:00 +29°C° 0 mm 1 mps 759 mmHg 46%
16:00 +29°C° 0 mm 1 mps 759 mmHg 47%
17:00 +27°C° 0 mm 1 mps 759 mmHg 54%
18:00 +25°C° 0 mm 1 mps 759 mmHg 61%
19:00 +23°C° 0 mm 1 mps 759 mmHg 68%
20:00 +23°C° 0 mm 1 mps 760 mmHg 66%
21:00 +22°C° 0 mm 1 mps 760 mmHg 65%
22:00 +22°C° 0 mm 1 mps 760 mmHg 64%
23:00 +22°C° 0 mm 1 mps 760 mmHg 64%

Tomorrow, 16 July, Thursday

Time Temperature Precipitation Wind Pressure Humidity
00:00 +21°C° 0 mm 2 mps 760 mmHg 64%
01:00 +21°C° 0 mm 3 mps 760 mmHg 64%
02:00 +20°C° 0 mm 2 mps 760 mmHg 66%
03:00 +20°C° 0 mm 2 mps 759 mmHg 68%
04:00 +19°C° 0 mm 2 mps 759 mmHg 69%
05:00 +22°C° 0 mm 1 mps 759 mmHg 66%
06:00 +24°C° 0 mm 1 mps 759 mmHg 62%
07:00 +26°C° 0 mm 1 mps 759 mmHg 58%
08:00 +27°C° 0 mm 1 mps 759 mmHg 54%
09:00 +29°C° 0 mm 1 mps 759 mmHg 49%
10:00 +30°C° 0 mm 2 mps 759 mmHg 45%
11:00 +31°C° 0 mm 2 mps 759 mmHg 45%
12:00 +31°C° 0 mm 3 mps 759 mmHg 45%
13:00 +32°C° 0 mm 4 mps 758 mmHg 45%
14:00 +30°C° 0 mm 4 mps 758 mmHg 48%
15:00 +30°C° 0 mm 4 mps 758 mmHg 50%
16:00 +30°C° 0 mm 5 mps 757 mmHg 52%
17:00 +28°C° 0 mm 4 mps 758 mmHg 61%
18:00 +26°C° 0 mm 4 mps 758 mmHg 69%
19:00 +23°C° 0 mm 4 mps 758 mmHg 78%
20:00 +24°C° 0 mm 3 mps 758 mmHg 76%
21:00 +24°C° 0 mm 3 mps 758 mmHg 75%
22:00 +22°C° 0 mm 3 mps 758 mmHg 73%
23:00 +23°C° 0 mm 2 mps 758 mmHg 75%

Day after tomorrow, 17 July, Friday

Time Temperature Precipitation Wind Pressure Humidity
00:00 +21°C° 0 mm 2 mps 758 mmHg 76%
01:00 +21°C° 0 mm 2 mps 758 mmHg 78%
02:00 +20°C° 0 mm 2 mps 758 mmHg 77%
03:00 +20°C° 0 mm 2 mps 757 mmHg 77%
04:00 +20°C° 0 mm 2 mps 757 mmHg 77%
05:00 +23°C° 0 mm 2 mps 757 mmHg 72%
06:00 +25°C° 0 mm 2 mps 757 mmHg 67%
07:00 +27°C° 0 mm 2 mps 757 mmHg 62%
08:00 +28°C° 0 mm 2 mps 757 mmHg 58%
09:00 +29°C° 0 mm 2 mps 757 mmHg 54%
10:00 +30°C° 0 mm 2 mps 757 mmHg 50%
11:00 +31°C° 0 mm 2 mps 756 mmHg 49%
12:00 +31°C° 0 mm 2 mps 756 mmHg 48%
13:00 +33°C° 0 mm 3 mps 756 mmHg 47%
14:00 +31°C° 0 mm 3 mps 756 mmHg 45%
15:00 +31°C° 0 mm 3 mps 756 mmHg 44%
16:00 +31°C° 0 mm 3 mps 756 mmHg 43%
17:00 +29°C° 0 mm 3 mps 756 mmHg 51%
18:00 +27°C° 0 mm 3 mps 756 mmHg 59%
19:00 +25°C° 0 mm 3 mps 756 mmHg 68%
20:00 +25°C° 0 mm 3 mps 756 mmHg 68%
21:00 +24°C° 0 mm 3 mps 757 mmHg 68%
22:00 +22°C° 0 mm 4 mps 757 mmHg 68%
23:00 +22°C° 0 mm 4 mps 757 mmHg 69%

18 July, Saturday

Time Temperature Precipitation Wind Pressure Humidity
00:00 +22°C° 0 mm 4 mps 757 mmHg 69%
01:00 +21°C° 0 mm 3 mps 757 mmHg 70%
02:00 +21°C° 0 mm 3 mps 757 mmHg 72%
03:00 +21°C° 0 mm 3 mps 757 mmHg 73%
04:00 +20°C° 0 mm 3 mps 757 mmHg 75%
05:00 +22°C° 0 mm 3 mps 757 mmHg 72%
06:00 +24°C° 0 mm 2 mps 757 mmHg 69%
07:00 +26°C° 0 mm 2 mps 757 mmHg 66%
08:00 +27°C° 0.1 mm 3 mps 757 mmHg 63%
09:00 +27°C° 0.1 mm 3 mps 757 mmHg 61%
10:00 +28°C° 0.1 mm 4 mps 757 mmHg 58%
11:00 +28°C° 0.1 mm 5 mps 757 mmHg 64%
12:00 +27°C° 0.1 mm 5 mps 757 mmHg 70%
13:00 +27°C° 0.1 mm 5 mps 757 mmHg 77%
14:00 +28°C° 0.1 mm 5 mps 757 mmHg 70%
15:00 +28°C° 0.1 mm 5 mps 757 mmHg 63%
16:00 +29°C° 0.1 mm 5 mps 757 mmHg 57%
17:00 +27°C° 0.1 mm 4 mps 757 mmHg 66%
18:00 +25°C° 0.1 mm 4 mps 757 mmHg 76%
19:00 +22°C° 0.1 mm 4 mps 757 mmHg 86%
20:00 +22°C° 0 mm 4 mps 757 mmHg 87%
21:00 +21°C° 0 mm 5 mps 758 mmHg 88%
22:00 +20°C° 0 mm 5 mps 758 mmHg 88%
23:00 +20°C° 0 mm 4 mps 758 mmHg 89%

19 July, Sunday

Time Temperature Precipitation Wind Pressure Humidity
00:00 +19°C° 0 mm 4 mps 758 mmHg 90%
01:00 +19°C° 0 mm 4 mps 758 mmHg 90%
02:00 +19°C° 0 mm 3 mps 758 mmHg 90%
03:00 +18°C° 0 mm 3 mps 758 mmHg 89%
04:00 +18°C° 0 mm 2 mps 758 mmHg 89%
05:00 +20°C° 0 mm 2 mps 758 mmHg 84%
06:00 +21°C° 0 mm 2 mps 758 mmHg 80%
07:00 +24°C° 0 mm 2 mps 758 mmHg 76%
08:00 +26°C° 0 mm 2 mps 759 mmHg 68%
09:00 +28°C° 0 mm 2 mps 759 mmHg 61%
10:00 +31°C° 0 mm 2 mps 759 mmHg 54%
11:00 +30°C° 0 mm 3 mps 759 mmHg 58%
12:00 +29°C° 0 mm 3 mps 759 mmHg 62%
13:00 +29°C° 0 mm 3 mps 759 mmHg 67%
14:00 +29°C° 0.1 mm 4 mps 759 mmHg 70%
15:00 +28°C° 0.1 mm 5 mps 759 mmHg 73%
16:00 +28°C° 0.1 mm 6 mps 758 mmHg 76%
17:00 +27°C° 0 mm 6 mps 759 mmHg 79%
18:00 +26°C° 0 mm 6 mps 759 mmHg 83%
19:00 +23°C° 0 mm 6 mps 759 mmHg 86%
20:00 +23°C° 0 mm 6 mps 759 mmHg 83%
21:00 +22°C° 0 mm 5 mps 760 mmHg 80%
22:00 +21°C° 0 mm 5 mps 760 mmHg 77%
23:00 +21°C° 0 mm 5 mps 760 mmHg 75%

20 July, Monday

Time Temperature Precipitation Wind Pressure Humidity
00:00 +21°C° 0 mm 4 mps 760 mmHg 74%
01:00 +21°C° 0 mm 4 mps 760 mmHg 72%
02:00 +21°C° 0 mm 3 mps 760 mmHg 71%
03:00 +21°C° 0 mm 3 mps 760 mmHg 70%
04:00 +20°C° 0 mm 3 mps 759 mmHg 69%
05:00 +23°C° 0 mm 2 mps 759 mmHg 66%
06:00 +25°C° 0 mm 2 mps 759 mmHg 62%
07:00 +26°C° 0 mm 2 mps 759 mmHg 59%
08:00 +28°C° 0 mm 2 mps 760 mmHg 52%
09:00 +31°C° 0 mm 2 mps 760 mmHg 44%
10:00 +34°C° 0 mm 2 mps 760 mmHg 36%
11:00 +34°C° 0 mm 2 mps 760 mmHg 36%
12:00 +35°C° 0 mm 3 mps 760 mmHg 36%
13:00 +35°C° 0 mm 3 mps 759 mmHg 35%
14:00 +34°C° 0 mm 4 mps 759 mmHg 38%
15:00 +34°C° 0 mm 5 mps 759 mmHg 41%
16:00 +33°C° 0 mm 5 mps 759 mmHg 44%
17:00 +30°C° 0 mm 5 mps 759 mmHg 52%
18:00 +28°C° 0 mm 5 mps 759 mmHg 60%
19:00 +26°C° 0 mm 5 mps 759 mmHg 68%
20:00 +26°C° 0 mm 5 mps 759 mmHg 66%
21:00 +26°C° 0 mm 5 mps 760 mmHg 65%
22:00 +25°C° 0 mm 5 mps 760 mmHg 64%
23:00 +25°C° 0 mm 4 mps 760 mmHg 64%
Show more